When you browse on this site, cookies collect data to enhance your experience and personalize the content and advertising you see.
Visit our Privacy Policy to learn more. By continuing to use the site, you agree to this use of cookies and data.
  • In Hungary
  • List of Countries
  • For 7 days
  • Water Temperature
  • Satellite Maps
  • Weather Map
  • News
  • Weather Widgets
  • user-avatar
    Login

    Hourly Weather Chandler

    Today, 20 March, Wednesday

    Time Temperature Precipitation Wind Pressure Humidity
    00:00 +23°C° 0 mm 1 mps 728 mmHg 28%
    01:00 +23°C° 0 mm 1 mps 728 mmHg 28%
    02:00 +23°C° 0 mm 1 mps 728 mmHg 29%
    03:00 +22°C° 0 mm 1 mps 728 mmHg 30%
    04:00 +21°C° 0 mm 2 mps 728 mmHg 31%
    05:00 +20°C° 0 mm 2 mps 728 mmHg 31%
    06:00 +21°C° 0 mm 2 mps 728 mmHg 31%
    07:00 +21°C° 0 mm 2 mps 728 mmHg 31%
    08:00 +23°C° 0 mm 2 mps 729 mmHg 31%
    09:00 +24°C° 0 mm 2 mps 729 mmHg 27%
    10:00 +26°C° 0 mm 3 mps 729 mmHg 24%
    11:00 +27°C° 0 mm 4 mps 729 mmHg 20%
    12:00 +28°C° 0 mm 5 mps 729 mmHg 17%
    13:00 +29°C° 0 mm 6 mps 728 mmHg 15%
    14:00 +30°C° 0 mm 7 mps 728 mmHg 12%
    15:00 +30°C° 0 mm 7 mps 728 mmHg 11%
    16:00 +29°C° 0 mm 8 mps 727 mmHg 10%
    17:00 +29°C° 0 mm 8 mps 727 mmHg 9%
    18:00 +27°C° 0 mm 7 mps 727 mmHg 12%
    19:00 +26°C° 0 mm 7 mps 727 mmHg 15%
    20:00 +23°C° 0 mm 6 mps 728 mmHg 17%
    21:00 +22°C° 0 mm 5 mps 728 mmHg 23%
    22:00 +21°C° 0 mm 4 mps 728 mmHg 28%
    23:00 +21°C° 0 mm 3 mps 729 mmHg 34%

    Tomorrow, 21 March, Thursday

    Time Temperature Precipitation Wind Pressure Humidity
    00:00 +20°C° 0 mm 4 mps 729 mmHg 37%
    01:00 +19°C° 0 mm 4 mps 729 mmHg 41%
    02:00 +18°C° 0 mm 4 mps 729 mmHg 45%
    03:00 +17°C° 0 mm 4 mps 729 mmHg 46%
    04:00 +17°C° 0 mm 4 mps 729 mmHg 47%
    05:00 +16°C° 0 mm 3 mps 729 mmHg 48%
    06:00 +16°C° 0 mm 3 mps 729 mmHg 47%
    07:00 +16°C° 0 mm 3 mps 729 mmHg 45%
    08:00 +16°C° 0 mm 2 mps 730 mmHg 44%
    09:00 +17°C° 0 mm 2 mps 730 mmHg 40%
    10:00 +18°C° 0 mm 3 mps 730 mmHg 36%
    11:00 +19°C° 0 mm 3 mps 730 mmHg 33%
    12:00 +20°C° 0 mm 4 mps 730 mmHg 28%
    13:00 +21°C° 0 mm 4 mps 729 mmHg 24%
    14:00 +22°C° 0 mm 5 mps 729 mmHg 20%
    15:00 +22°C° 0 mm 5 mps 728 mmHg 20%
    16:00 +22°C° 0 mm 6 mps 728 mmHg 19%
    17:00 +21°C° 0 mm 6 mps 728 mmHg 19%
    18:00 +21°C° 0 mm 5 mps 728 mmHg 21%
    19:00 +20°C° 0 mm 5 mps 728 mmHg 22%
    20:00 +19°C° 0 mm 5 mps 729 mmHg 24%
    21:00 +17°C° 0 mm 5 mps 729 mmHg 27%
    22:00 +17°C° 0 mm 5 mps 729 mmHg 29%
    23:00 +17°C° 0 mm 4 mps 730 mmHg 31%

    Day after tomorrow, 22 March, Friday

    Time Temperature Precipitation Wind Pressure Humidity
    00:00 +15°C° 0 mm 4 mps 730 mmHg 34%
    01:00 +16°C° 0 mm 3 mps 729 mmHg 37%
    02:00 +15°C° 0 mm 2 mps 729 mmHg 40%
    03:00 +15°C° 0 mm 1 mps 729 mmHg 41%
    04:00 +14°C° 0 mm 1 mps 729 mmHg 43%
    05:00 +14°C° 0 mm 1 mps 729 mmHg 45%
    06:00 +14°C° 0 mm 1 mps 729 mmHg 43%
    07:00 +15°C° 0 mm 1 mps 730 mmHg 42%
    08:00 +16°C° 0 mm 1 mps 730 mmHg 40%
    09:00 +18°C° 0 mm 1 mps 730 mmHg 36%
    10:00 +19°C° 0 mm 1 mps 730 mmHg 32%
    11:00 +20°C° 0 mm 1 mps 731 mmHg 29%
    12:00 +21°C° 0 mm 1 mps 730 mmHg 26%
    13:00 +21°C° 0 mm 2 mps 730 mmHg 24%
    14:00 +23°C° 0 mm 2 mps 729 mmHg 22%
    15:00 +23°C° 0 mm 2 mps 729 mmHg 21%
    16:00 +23°C° 0 mm 2 mps 729 mmHg 20%
    17:00 +23°C° 0 mm 2 mps 728 mmHg 20%
    18:00 +23°C° 0 mm 2 mps 729 mmHg 22%
    19:00 +22°C° 0 mm 1 mps 729 mmHg 24%
    20:00 +21°C° 0 mm 1 mps 730 mmHg 27%
    21:00 +20°C° 0 mm 1 mps 730 mmHg 28%
    22:00 +20°C° 0 mm 1 mps 730 mmHg 28%
    23:00 +19°C° 0 mm 1 mps 730 mmHg 29%

    23 March, Saturday

    Time Temperature Precipitation Wind Pressure Humidity
    00:00 +18°C° 0 mm 1 mps 730 mmHg 31%
    01:00 +18°C° 0 mm 1 mps 730 mmHg 32%
    02:00 +15°C° 0 mm 0 mps 730 mmHg 33%
    03:00 +15°C° 0 mm 0 mps 730 mmHg 34%
    04:00 +15°C° 0 mm 0 mps 729 mmHg 34%
    05:00 +14°C° 0 mm 0 mps 729 mmHg 35%
    06:00 +16°C° 0 mm 1 mps 730 mmHg 32%
    07:00 +18°C° 0 mm 1 mps 730 mmHg 30%
    08:00 +19°C° 0 mm 1 mps 730 mmHg 28%
    09:00 +20°C° 0 mm 1 mps 730 mmHg 26%
    10:00 +22°C° 0 mm 1 mps 730 mmHg 23%
    11:00 +23°C° 0 mm 1 mps 730 mmHg 21%
    12:00 +24°C° 0 mm 2 mps 729 mmHg 20%
    13:00 +24°C° 0 mm 2 mps 729 mmHg 18%
    14:00 +25°C° 0 mm 2 mps 728 mmHg 17%
    15:00 +26°C° 0 mm 3 mps 728 mmHg 17%
    16:00 +26°C° 0 mm 3 mps 728 mmHg 16%
    17:00 +26°C° 0 mm 3 mps 728 mmHg 16%
    18:00 +25°C° 0 mm 4 mps 728 mmHg 18%
    19:00 +23°C° 0 mm 4 mps 728 mmHg 20%
    20:00 +22°C° 0 mm 4 mps 728 mmHg 21%
    21:00 +21°C° 0 mm 3 mps 729 mmHg 23%
    22:00 +21°C° 0 mm 3 mps 729 mmHg 26%
    23:00 +20°C° 0 mm 2 mps 729 mmHg 28%

    24 March, Sunday

    Time Temperature Precipitation Wind Pressure Humidity
    00:00 +19°C° 0 mm 2 mps 729 mmHg 30%
    01:00 +19°C° 0 mm 2 mps 729 mmHg 33%
    02:00 +18°C° 0 mm 2 mps 728 mmHg 36%
    03:00 +17°C° 0 mm 2 mps 728 mmHg 39%
    04:00 +18°C° 0 mm 1 mps 728 mmHg 42%
    05:00 +16°C° 0 mm 1 mps 728 mmHg 45%
    06:00 +18°C° 0 mm 1 mps 729 mmHg 43%
    07:00 +18°C° 0 mm 1 mps 729 mmHg 41%
    08:00 +19°C° 0 mm 1 mps 730 mmHg 39%
    09:00 +20°C° 0 mm 1 mps 730 mmHg 36%
    10:00 +22°C° 0 mm 1 mps 730 mmHg 32%
    11:00 +23°C° 0 mm 1 mps 730 mmHg 28%
    12:00 +24°C° 0 mm 2 mps 730 mmHg 25%
    13:00 +25°C° 0 mm 2 mps 730 mmHg 22%
    14:00 +26°C° 0 mm 3 mps 729 mmHg 19%
    15:00 +26°C° 0 mm 3 mps 729 mmHg 18%
    16:00 +26°C° 0 mm 3 mps 729 mmHg 16%
    17:00 +26°C° 0 mm 4 mps 729 mmHg 15%
    18:00 +25°C° 0 mm 3 mps 729 mmHg 17%
    19:00 +24°C° 0 mm 2 mps 730 mmHg 18%
    20:00 +23°C° 0 mm 2 mps 730 mmHg 20%
    21:00 +22°C° 0 mm 1 mps 731 mmHg 22%
    22:00 +21°C° 0 mm 1 mps 731 mmHg 24%
    23:00 +21°C° 0 mm 1 mps 731 mmHg 26%

    25 March, Monday

    Time Temperature Precipitation Wind Pressure Humidity
    00:00 +18°C° 0 mm 0 mps 731 mmHg 27%
    01:00 +17°C° 0 mm 0 mps 731 mmHg 28%
    02:00 +17°C° 0 mm 0 mps 731 mmHg 28%
    03:00 +18°C° 0 mm 1 mps 731 mmHg 28%
    04:00 +18°C° 0 mm 1 mps 731 mmHg 29%
    05:00 +18°C° 0 mm 1 mps 731 mmHg 29%
    06:00 +19°C° 0 mm 1 mps 731 mmHg 27%
    07:00 +18°C° 0 mm 2 mps 732 mmHg 26%
    08:00 +19°C° 0 mm 2 mps 732 mmHg 24%
    09:00 +21°C° 0 mm 2 mps 732 mmHg 22%
    10:00 +23°C° 0 mm 1 mps 732 mmHg 19%
    11:00 +25°C° 0 mm 1 mps 732 mmHg 17%
    12:00 +26°C° 0 mm 1 mps 732 mmHg 15%
    13:00 +25°C° 0 mm 0 mps 731 mmHg 14%
    14:00 +26°C° 0 mm 0 mps 730 mmHg 12%
    15:00 +26°C° 0 mm 0 mps 730 mmHg 12%
    16:00 +28°C° 0 mm 1 mps 730 mmHg 11%
    17:00 +28°C° 0 mm 1 mps 729 mmHg 11%
    18:00 +27°C° 0 mm 1 mps 730 mmHg 12%
    19:00 +26°C° 0 mm 1 mps 730 mmHg 13%
    20:00 +25°C° 0 mm 1 mps 730 mmHg 15%
    21:00 +24°C° 0 mm 1 mps 730 mmHg 15%
    22:00 +23°C° 0 mm 1 mps 730 mmHg 15%
    23:00 +23°C° 0 mm 2 mps 730 mmHg 16%
    Show more